TimeEST,TemperatureF,Dew PointF,Humidity,Sea Level PressureIn,VisibilityMPH,Wind Direction,Wind SpeedMPH,Gust SpeedMPH,PrecipitationIn,Events,Conditions,WindDirDegrees,DateUTC
12:15 AM,37.0,30.2,76,30.40,10.0,Calm,Calm,-,N/A,,Clear,0,2012-11-17 05:15:00
12:35 AM,39.0,30.6,72,30.40,10.0,NNE,3.5,-,N/A,,Clear,20,2012-11-17 05:35:00
12:55 AM,39.9,30.2,68,30.40,10.0,NNE,5.8,-,N/A,,Clear,20,2012-11-17 05:55:00
1:15 AM,40.1,30.2,68,30.40,10.0,NNE,4.6,-,N/A,,Clear,20,2012-11-17 06:15:00
1:35 AM,39.6,30.2,69,30.41,10.0,NNE,3.5,-,N/A,,Clear,30,2012-11-17 06:35:00
1:55 AM,37.6,30.4,75,30.41,10.0,Calm,Calm,-,N/A,,Clear,0,2012-11-17 06:55:00
2:15 AM,36.9,29.8,76,30.41,10.0,NNE,3.5,-,N/A,,Clear,20,2012-11-17 07:15:00
2:35 AM,38.5,29.7,71,30.42,10.0,Calm,Calm,-,N/A,,Clear,0,2012-11-17 07:35:00
2:55 AM,39.2,30.2,70,30.42,10.0,NNE,3.5,-,N/A,,Clear,20,2012-11-17 07:55:00
3:15 AM,38.1,30.2,73,30.43,10.0,NNE,3.5,-,N/A,,Clear,20,2012-11-17 08:15:00
3:35 AM,37.6,30.0,74,30.42,10.0,Calm,Calm,-,N/A,,Clear,0,2012-11-17 08:35:00
3:55 AM,33.8,30.0,86,30.43,10.0,North,3.5,-,N/A,,Clear,10,2012-11-17 08:55:00
4:15 AM,38.1,29.7,72,30.43,10.0,NNE,3.5,-,N/A,,Clear,20,2012-11-17 09:15:00
4:35 AM,36.5,29.8,77,30.43,10.0,North,5.8,-,N/A,,Clear,10,2012-11-17 09:35:00
4:55 AM,39.4,29.7,68,30.44,10.0,North,3.5,-,N/A,,Clear,10,2012-11-17 09:55:00
5:15 AM,37.4,29.5,73,30.44,10.0,North,4.6,-,N/A,,Clear,360,2012-11-17 10:15:00
5:35 AM,37.4,29.5,73,30.44,10.0,North,5.8,-,N/A,,Clear,350,2012-11-17 10:35:00
5:55 AM,36.1,29.3,76,30.44,10.0,NNW,3.5,-,N/A,,Clear,340,2012-11-17 10:55:00
6:15 AM,34.9,29.3,80,30.44,10.0,North,4.6,-,N/A,,Clear,350,2012-11-17 11:15:00
6:35 AM,33.6,29.3,84,30.45,10.0,North,3.5,-,N/A,,Clear,360,2012-11-17 11:35:00
6:55 AM,35.4,29.1,78,30.46,10.0,North,4.6,-,N/A,,Clear,10,2012-11-17 11:55:00
7:15 AM,36.3,29.3,76,30.46,10.0,North,5.8,-,N/A,,Clear,10,2012-11-17 12:15:00
7:35 AM,38.8,29.3,69,30.47,10.0,North,4.6,-,N/A,,Clear,360,2012-11-17 12:35:00
7:55 AM,39.4,30.0,69,30.48,10.0,North,3.5,-,N/A,,Clear,360,2012-11-17 12:55:00
8:15 AM,40.5,30.2,67,30.48,10.0,NNW,3.5,-,N/A,,Clear,340,2012-11-17 13:15:00
8:35 AM,40.8,31.1,68,30.49,10.0,NW,3.5,-,N/A,,Clear,320,2012-11-17 13:35:00
8:55 AM,43.3,32.0,64,30.49,10.0,North,4.6,-,N/A,,Clear,360,2012-11-17 13:55:00
9:15 AM,46.2,31.3,56,30.49,10.0,North,4.6,-,N/A,,Clear,360,2012-11-17 14:15:00
9:35 AM,46.9,30.2,52,30.49,10.0,NE,3.5,-,N/A,,Clear,40,2012-11-17 14:35:00
9:55 AM,48.2,29.7,49,30.49,10.0,NE,8.1,-,N/A,,Clear,40,2012-11-17 14:55:00
10:15 AM,49.3,29.5,46,30.49,10.0,North,5.8,-,N/A,,Clear,360,2012-11-17 15:15:00
10:35 AM,51.3,29.7,44,30.48,10.0,NNE,8.1,-,N/A,,Clear,20,2012-11-17 15:35:00
10:55 AM,51.8,28.8,41,30.48,10.0,North,10.4,-,N/A,,Clear,10,2012-11-17 15:55:00
11:15 AM,52.2,28.6,40,30.47,10.0,North,8.1,-,N/A,,Clear,10,2012-11-17 16:15:00
11:35 AM,53.1,28.9,40,30.46,10.0,North,5.8,-,N/A,,Clear,350,2012-11-17 16:35:00
12:55 PM,56.1,28.0,34,30.43,10.0,NE,3.5,-,N/A,,Clear,50,2012-11-17 17:55:00
1:15 PM,57.0,28.6,34,30.41,10.0,North,5.8,-,N/A,,Clear,350,2012-11-17 18:15:00
1:35 PM,57.2,27.3,32,30.41,10.0,North,8.1,-,N/A,,Clear,360,2012-11-17 18:35:00
1:55 PM,57.4,27.0,31,30.40,10.0,NNW,5.8,-,N/A,,Clear,340,2012-11-17 18:55:00
2:15 PM,57.7,27.0,31,30.41,10.0,NE,5.8,-,N/A,,Clear,40,2012-11-17 19:15:00
2:35 PM,58.3,27.1,30,30.40,10.0,NE,5.8,-,N/A,,Clear,40,2012-11-17 19:35:00
2:55 PM,59.0,27.5,30,30.40,10.0,North,6.9,-,N/A,,Clear,360,2012-11-17 19:55:00
3:15 PM,58.6,27.0,30,30.38,10.0,NNE,5.8,-,N/A,,Clear,30,2012-11-17 20:15:00
3:35 PM,58.5,25.7,29,30.39,10.0,NNE,10.4,-,N/A,,Clear,30,2012-11-17 20:35:00
3:55 PM,58.5,24.8,27,30.40,10.0,NNE,8.1,-,N/A,,Clear,30,2012-11-17 20:55:00
4:15 PM,58.1,24.6,28,30.41,10.0,NNE,4.6,-,N/A,,Clear,30,2012-11-17 21:15:00
4:35 PM,57.4,22.8,26,30.41,10.0,ENE,4.6,-,N/A,,Clear,70,2012-11-17 21:35:00
4:55 PM,56.3,24.8,30,30.41,10.0,Calm,Calm,-,N/A,,Clear,0,2012-11-17 21:55:00
5:15 PM,54.5,25.2,32,30.42,10.0,NE,3.5,-,N/A,,Clear,50,2012-11-17 22:15:00
5:35 PM,53.4,25.0,33,30.42,10.0,East,3.5,-,N/A,,Clear,100,2012-11-17 22:35:00
5:55 PM,52.7,24.8,34,30.43,10.0,Calm,Calm,-,N/A,,Clear,0,2012-11-17 22:55:00
6:15 PM,51.3,25.0,36,30.43,10.0,East,3.5,-,N/A,,Clear,80,2012-11-17 23:15:00
6:35 PM,50.4,25.2,37,30.44,10.0,East,4.6,-,N/A,,Clear,80,2012-11-17 23:35:00
6:55 PM,50.0,24.3,37,30.44,10.0,ENE,3.5,-,N/A,,Clear,60,2012-11-17 23:55:00
7:15 PM,49.1,24.8,39,30.44,10.0,NE,4.6,-,N/A,,Clear,40,2012-11-18 00:15:00
7:35 PM,48.6,25.0,40,30.44,10.0,NE,3.5,-,N/A,,Clear,50,2012-11-18 00:35:00
7:55 PM,48.9,23.7,37,30.45,10.0,NE,3.5,-,N/A,,Clear,50,2012-11-18 00:55:00
8:15 PM,47.8,23.0,38,30.46,10.0,NNE,4.6,-,N/A,,Clear,30,2012-11-18 01:15:00
8:35 PM,48.0,22.5,37,30.46,10.0,NNE,4.6,-,N/A,,Clear,20,2012-11-18 01:35:00
8:55 PM,46.8,23.0,39,30.47,10.0,NNE,4.6,-,N/A,,Clear,20,2012-11-18 01:55:00
9:15 PM,48.2,22.6,37,30.46,10.0,NE,6.9,-,N/A,,Clear,40,2012-11-18 02:15:00
9:35 PM,48.0,22.5,37,30.46,10.0,NNE,6.9,-,N/A,,Clear,20,2012-11-18 02:35:00
9:55 PM,47.1,22.5,38,30.46,10.0,NNE,5.8,-,N/A,,Clear,20,2012-11-18 02:55:00
10:15 PM,42.3,24.8,50,30.46,10.0,Calm,Calm,-,N/A,,Clear,0,2012-11-18 03:15:00
10:35 PM,44.2,23.0,43,30.46,10.0,North,4.6,-,N/A,,Clear,10,2012-11-18 03:35:00
10:55 PM,45.0,22.6,41,30.46,10.0,NNE,4.6,-,N/A,,Clear,20,2012-11-18 03:55:00
11:15 PM,44.6,22.8,42,30.46,10.0,North,4.6,-,N/A,,Clear,360,2012-11-18 04:15:00
11:35 PM,43.7,23.0,44,30.46,10.0,North,3.5,-,N/A,,Clear,10,2012-11-18 04:35:00
11:55 PM,43.5,22.8,44,30.46,10.0,North,4.6,-,N/A,,Clear,10,2012-11-18 04:55:00